CMB530 ETAR-KBWI

Flight info

Callsign CMB530
Flight time N/A
Altitude 23000
Route RUDOT Q762 LULAT/N0409F240 Z104 RITAX/N0468F360 M624 BUB L608 DENUT L610 KOPUL Q63 ICTAM L179 SAWPE DCT OZZIL DCT ARPAK DCT FELCA DCT FADZU DCT NICXI DCT OFSOX DCT BANBA DCT LODLA DCT DOLIP DCT XETBO DCT LIMRI/M082F370 NATF TUDEP/N0475F380 DCT FROSS DCT TOPPS DCT ENE DCT NELIE Q75 MXE V378 NUGGY TRISH4
Aircraft B772/H-SDE2E3FGHIJ5LORVWXY/LB1D1

Departure

Time 2026-04-24 11:59
Airport Ramstein Air Base (ETAR)

Arrival

Time N/A
Airport Baltimore/Washington International Thurgood Marshall Airport (KBWI)
Time Latitude Longitude Altitude Speed Heading
2026-04-24 10:49 49.44238 7.58910 780 ft 0 kts 354°
2026-04-24 11:46 49.44226 7.58912 780 ft 3 kts
2026-04-24 11:46 49.44207 7.58907 780 ft 3 kts 30°
2026-04-24 11:46 49.44193 7.58889 780 ft 3 kts 65°
2026-04-24 11:46 49.44187 7.58860 780 ft 3 kts 87°
2026-04-24 11:47 49.44188 7.58829 779 ft 3 kts 95°
2026-04-24 11:47 49.44189 7.58800 779 ft 2 kts 90°
2026-04-24 11:47 49.44189 7.58793 779 ft 0 kts 87°
2026-04-24 11:50 49.44189 7.58796 779 ft 4 kts 87°
2026-04-24 11:50 49.44191 7.58833 779 ft 0 kts 87°
2026-04-24 11:51 49.44191 7.58852 779 ft 9 kts 87°
2026-04-24 11:51 49.44161 7.58929 780 ft 6 kts 162°
2026-04-24 11:52 49.44122 7.58937 780 ft 6 kts 175°
2026-04-24 11:52 49.44082 7.58938 780 ft 6 kts 189°
2026-04-24 11:52 49.44057 7.58860 780 ft 10 kts 284°
2026-04-24 11:52 49.44056 7.58755 779 ft 10 kts 233°
2026-04-24 11:53 49.43990 7.58722 779 ft 11 kts 198°
2026-04-24 11:53 49.43943 7.58593 778 ft 15 kts 267°
2026-04-24 11:53 49.43940 7.58431 778 ft 15 kts 268°
2026-04-24 11:53 49.43915 7.58298 777 ft 3 kts 213°
2026-04-24 11:54 49.43880 7.58314 777 ft 7 kts 146°
2026-04-24 11:54 49.43838 7.58349 777 ft 7 kts 160°
2026-04-24 11:54 49.43791 7.58364 778 ft 7 kts 171°
2026-04-24 11:54 49.43748 7.58370 778 ft 0 kts 175°
2026-04-24 11:55 49.43690 7.58377 778 ft 16 kts 179°
2026-04-24 11:55 49.43617 7.58262 776 ft 16 kts 256°
2026-04-24 11:55 49.43608 7.58089 776 ft 16 kts 267°
2026-04-24 11:56 49.43602 7.57914 776 ft 16 kts 266°
2026-04-24 11:56 49.43595 7.57739 774 ft 16 kts 266°
2026-04-24 11:56 49.43568 7.57602 775 ft 11 kts 216°
2026-04-24 11:56 49.43499 7.57622 774 ft 11 kts 147°
2026-04-24 11:57 49.43439 7.57693 774 ft 11 kts 141°
2026-04-24 11:57 49.43381 7.57767 774 ft 11 kts 140°
2026-04-24 11:57 49.43323 7.57842 774 ft 11 kts 140°
2026-04-24 11:57 49.43272 7.57924 775 ft 11 kts 118°
2026-04-24 11:58 49.43266 7.57972 775 ft 0 kts 82°
2026-04-24 11:58 49.43283 7.58177 773 ft 51 kts 82°
2026-04-24 11:58 49.43362 7.59083 779 ft 118 kts 83°
2026-04-24 11:58 49.43524 7.60634 799 ft 172 kts 77°
2026-04-24 11:59 49.43696 7.62503 1418 ft 178 kts 81°
2026-04-24 11:59 49.43843 7.64430 2251 ft 183 kts 89°
2026-04-24 11:59 49.43468 7.66393 2721 ft 208 kts 123°
2026-04-24 11:59 49.42525 7.68249 2791 ft 230 kts 117°
2026-04-24 12:00 49.42253 7.70638 3038 ft 237 kts 74°
2026-04-24 12:00 49.43096 7.72831 3437 ft 246 kts 35°
2026-04-24 12:00 49.44659 7.73733 4224 ft 238 kts
2026-04-24 12:00 49.46271 7.74397 4491 ft 249 kts 31°
2026-04-24 12:01 49.47431 7.76408 4928 ft 254 kts 59°
2026-04-24 12:01 49.48330 7.78771 5301 ft 264 kts 54°
2026-04-24 12:01 49.49428 7.81046 5868 ft 264 kts 49°
2026-04-24 12:01 49.50615 7.83217 6488 ft 266 kts 46°
2026-04-24 12:02 49.51854 7.85361 7031 ft 268 kts 46°
2026-04-24 12:02 49.53103 7.87500 7557 ft 270 kts 46°
2026-04-24 12:02 49.54416 7.89571 7982 ft 271 kts 34°
2026-04-24 12:02 49.56141 7.90681 8362 ft 273 kts
2026-04-24 12:03 49.58017 7.90393 8884 ft 273 kts 341°
2026-04-24 12:03 49.59669 7.88956 9334 ft 275 kts 320°
2026-04-24 12:03 49.61057 7.86872 9635 ft 282 kts 316°
2026-04-24 12:03 49.62435 7.84701 10138 ft 283 kts 316°
2026-04-24 12:04 49.63819 7.82512 10529 ft 290 kts 316°
2026-04-24 12:04 49.65277 7.80212 10628 ft 308 kts 316°
2026-04-24 12:04 49.66825 7.77781 10798 ft 326 kts 316°
2026-04-24 12:04 49.68435 7.75266 11137 ft 337 kts 315°
2026-04-24 12:05 49.70092 7.72682 11819 ft 339 kts 315°
2026-04-24 12:05 49.71762 7.70078 12485 ft 343 kts 315°
2026-04-24 12:05 49.73446 7.67450 13296 ft 345 kts 315°
2026-04-24 12:05 49.75134 7.64808 14097 ft 347 kts 314°
2026-04-24 12:06 49.76842 7.62122 14699 ft 353 kts 314°
2026-04-24 12:06 49.78546 7.59339 15297 ft 358 kts 311°
2026-04-24 12:06 49.80179 7.56421 15996 ft 360 kts 310°
2026-04-24 12:06 49.81807 7.53433 16581 ft 366 kts 310°
2026-04-24 12:07 49.83456 7.50394 17204 ft 370 kts 310°
2026-04-24 12:07 49.85134 7.47311 17781 ft 377 kts 310°